Location: Forli
(44.2227°N, 12.0407°E)
Time: 15:39:26
(UTC+01:00)

BlueWalker 3 - Pass Details

Date: 21 February 2026
Orbit: 451 x 458 km, 53.2° (Epoch: 6 March)

Event Time Altitude Azimuth Distance (km) Brightness Sun altitude
Rises 06:24:10 0° 199° (SSW) 2,461 5.3 -7.6°
Reaches altitude 10° 06:26:39 10° 182° (S) 1,590 4.6 -7.1°
Maximum altitude 06:29:23 21° 132° (SE) 1,086 4.5 -6.6°
Drops below altitude 10° 06:32:08 10° 82° (E) 1,596 6.0 -6.2°
Sets 06:34:37 0° 66° (ENE) 2,472 6.5 -5.7°
